Lapse_Rate
1.9 2.3 2.8 2.9 3.2 3.8 4.4 4.3 5.7 6.1 5.1 1.5 1.4 0.1 0.3 1.2 1.8 1.9 2.0 3.3 4.6 4.7 4.4 4.0 3.9 3.8 3.9 4.2 5.4 5.5 4.1 5.0 5.5 5.8 6.1 6.7 6.5 6.4
1.7 2.4 2.7 2.8 3.8 3.5 3.6 3.9 3.9 4.9 4.7 2.1 0.8 0.7 1.2 2.3 2.8 2.2 2.1 2.3 3.7 4.1 4.3 4.0 4.1 3.9 4.0 3.9 4.2 5.3 4.8 4.9 5.8 6.0 6.2 6.4 6.7 6.5
2.1 2.6 3.1 2.8 3.5 2.7 2.4 3.1 3.4 3.5 4.2 1.3 1.0 0.8 1.3 1.9 2.6 3.0 2.3 1.9 2.6 3.5 4.0 3.7 3.9 4.1 3.7 3.8 3.4 3.7 4.3 4.1 4.1 4.0 6.1 6.5 6.0 4.9
2.3 3.5 2.8 2.8 3.8 3.8 3.4 3.6 3.4 2.3 4.1 3.2 1.6 1.2 2.1 2.6 2.0 1.1 1.6 1.9 2.3 3.7 3.8 4.0 3.9 4.0 3.3 3.0 3.2 3.0 3.0 3.8 3.3 3.0 3.2 4.4 4.5 4.3
1.3 2.8 2.2 2.0 2.2 2.7 2.8 3.0 2.3 2.5 3.1 3.2 2.3 2.9 2.6 1.5 0.4 0.3 0.5 1.0 2.1 2.6 3.0 3.4 4.1 4.4 4.0 3.6 2.8 2.7 2.8 3.0 3.4 2.9 2.7 3.0 3.3 3.5
0.6 0.7 1.2 1.6 1.9 1.5 1.4 1.4 1.7 1.9 2.2 3.1 2.9 2.9 2.1 0.4 -0.6 0.6 0.9 -0.3 -0.4 1.0 1.5 2.3 2.8 2.9 3.5 3.2 2.7 2.4 2.6 2.7 3.0 3.3 3.5 3.3 3.6 3.8
2.6 2.3 2.1 3.5 4.3 3.5 2.1 1.2 1.5 1.4 0.9 -0.0 0.3 0.4 0.4 0.1 0.4 -0.5 -0.2 -0.9 -0.7 -1.0 -0.9 -0.4 0.3 0.4 1.0 1.9 2.4 2.4 2.4 2.6 2.8 2.9 3.1 3.2 3.8 4.1
2.5 1.8 2.3 2.7 3.8 4.6 4.4 3.8 2.1 1.3 0.7 -0.3 -2.1 0.9 0.1 -0.4 -0.6 -0.9 -1.9 -0.3 -0.5 -0.6 -0.3 -0.1 -0.1 -0.8 0.4 2.1 3.2 2.6 2.2 2.5 2.7 2.9 3.1 3.2 3.5 3.8
1.3 0.9 1.5 1.7 1.1 1.3 2.6 2.2 2.3 2.6 1.3 -0.1 0.7 -0.1 0.0 -0.2 -1.1 -1.2 -0.7 -1.0 -0.7 -0.6 -0.6 0.0 -1.0 -0.1 0.4 1.6 3.3 3.5 3.2 2.9 2.9 3.0 3.3 3.4 3.8 4.1
-0.2 0.5 0.7 0.8 0.6 0.9 0.7 0.1 -0.7 -0.4 -0.4 -0.1 -0.8 -0.6 -0.2 -0.4 -0.0 -0.1 -0.4 -0.1 -0.7 -0.4 -1.1 -1.7 -1.3 0.1 -0.4 0.8 2.6 3.4 3.4 3.5 3.7 3.7 3.8 3.9 4.0 4.4
0.8 0.9 0.9 1.2 2.9 2.3 0.7 0.1 0.1 0.1 1.3 1.0 1.1 1.7 1.9 1.8 0.6 -0.3 -0.6 -0.9 -0.5 0.3 -0.7 -0.3 -1.0 -1.3 -1.1 -0.6 1.0 2.3 2.6 3.6 3.6 3.8 3.9 4.0 4.1 3.6
0.4 1.1 2.8 1.9 3.3 3.0 0.2 0.1 0.3 -0.0 -0.0 0.1 0.2 0.7 0.7 1.7 1.9 0.5 -0.8 -2.8 -2.0 -0.7 -0.3 -1.6 -1.9 -2.3 -2.1 -0.7 -0.1 0.7 1.1 2.0 2.1 2.5 2.9 3.4 3.7 2.9
0.7 0.6 0.8 3.3 3.3 2.9 1.3 -0.5 0.3 -0.2 0.9 -0.3 -0.3 -0.5 -0.6 -0.4 -0.2 0.4 0.1 -2.7 -3.4 -2.5 1.6 -1.9 -6.3 -3.5 -4.1 -2.3 -1.5 -0.8 0.3 0.5 0.9 1.1 1.6 2.6 3.6 4.1
1.2 0.9 0.6 2.9 3.0 2.8 2.0 2.0 2.9 1.5 -0.6 -0.2 -0.2 -0.5 -0.6 -0.9 -0.7 0.0 0.5 0.6 0.7 -0.2 0.7 1.0 -3.8 -3.5 -0.8 -1.7 -2.2 -1.5 -1.2 1.0 0.3 0.4 0.5 1.5 2.3 3.0
1.0 1.3 2.1 3.4 3.2 2.5 2.8 2.7 3.1 -0.0 -0.1 -0.5 -0.5 -1.2 -1.8 -2.4 -1.1 -0.7 0.0 0.0 0.1 1.2 1.7 1.5 0.1 -0.3 -0.5 -0.3 -0.9 -0.7 -0.8 -0.9 0.3 -2.3 0.3 0.4 -0.1 0.9
2.7 1.0 2.5 2.6 2.2 1.0 1.3 1.9 0.2 -0.3 -0.4 -0.8 -1.0 -1.1 -1.7 -2.0 -0.5 -0.7 -0.8 -3.2 -3.4 -1.4 0.9 1.4 1.2 0.0 -2.4 -2.8 -3.3 -1.0 -2.2 -1.0 -2.6 -1.8 -0.6 -0.4 0.5 1.3
1.8 0.8 0.5 0.1 0.1 0.0 -0.1 -0.1 -0.4 -0.4 -0.4 -0.7 -0.7 -0.4 0.1 0.3 0.0 -1.5 -1.9 -4.7 -2.9 -3.7 -1.9 -0.9 1.2 0.6 -1.2 -2.7 -1.8 -1.0 0.0 -1.5 -1.0 -0.5 -1.1 -1.8 0.1 2.2
2.3 0.1 -0.3 -0.1 0.1 0.5 0.6 0.3 -0.0 0.8 0.0 0.0 -0.3 -0.3 0.4 -0.2 -0.9 -3.0 -3.9 -3.2 -1.8 -2.1 -3.3 -3.2 -3.0 -1.5 -0.9 0.0 0.4 0.9 0.5 -1.7 -1.7 -1.2 -0.3 -0.7 -0.3 0.8
2.9 0.1 -0.0 0.0 0.4 0.4 0.4 -0.0 -0.2 0.2 0.6 0.3 0.2 0.5 -1.0 -1.1 0.8 -1.4 -3.0 -1.9 -2.1 -2.6 -2.7 -4.1 -4.2 -2.8 -1.1 1.4 1.3 3.6 -0.7 -2.8 -1.8 -0.1 1.4 1.2 1.3 0.9
1.9 1.0 0.3 0.3 0.3 0.4 0.5 0.4 0.5 0.2 -0.4 -0.4 -0.6 -0.4 -0.6 -0.7 -1.1 -1.3 -2.1 -1.9 -1.2 -1.8 -2.4 -4.8 -4.6 -3.3 0.0 0.8 0.5 0.7 3.9 -1.7 -0.7 1.3 -0.3 1.2 2.1 2.2
2.3 1.6 1.6 0.8 0.9 0.8 1.0 0.9 0.7 0.7 -0.0 -0.1 0.4 0.5 0.8 0.2 0.3 0.1 -0.8 2.3 1.3 -0.2 0.3 -0.2 -0.1 3.1 -0.0 1.9 1.2 0.8 1.3 4.2 4.5 -0.2 -1.7 1.9 2.9 1.5
1.7 1.9 2.4 2.3 1.8 2.0 1.9 1.9 1.7 2.2 2.2 1.2 1.5 1.8 1.4 1.6 1.1 1.3 0.8 1.0 1.3 1.6 1.2 1.1 -0.8 -1.7 -0.6 3.2 2.8 2.1 2.1 2.6 4.2 5.3 5.8 5.5 3.9 4.1
2.7 2.8 3.0 3.0 2.3 2.2 2.3 2.5 2.6 2.6 3.1 3.4 3.2 2.7 2.6 1.8 2.4 2.7 3.3 2.1 1.8 1.8 1.4 1.3 1.2 1.9 3.3 4.0 4.5 3.0 2.6 2.2 3.2 2.7 2.9 4.9 5.5 5.8
Wind_Speed
3 3 1 1 2 2 3 2 2 3 3 2 2 2 4 5 5 7 7 7 9 10 11 11 11 13 15 16 18 21 27 16 7 9 12 26 21 22
1 2 1 1 1 1 1 1 0 2 3 1 1 2 4 5 6 5 6 6 8 8 9 10 12 11 11 13 17 20 22 26 23 12 13 22 19 15
2 1 2 2 1 0 1 1 1 1 1 1 2 2 2 2 3 3 4 6 7 8 7 9 10 12 11 12 15 18 20 23 24 29 3 12 14 25
3 3 1 2 2 2 1 0 0 1 1 3 1 1 2 2 2 3 4 6 6 6 7 8 8 7 10 11 14 17 20 18 20 21 23 21 19 17
2 3 3 2 0 1 1 2 1 1 0 2 2 1 2 1 3 3 4 4 7 8 7 8 8 8 9 11 14 15 16 18 17 17 17 16 15 15
4 4 3 3 2 2 2 2 1 1 0 2 2 2 2 2 3 3 2 3 3 7 6 8 8 8 8 11 13 13 13 12 12 13 13 12 12 12
3 3 4 3 3 1 1 1 2 1 2 2 2 2 1 1 2 1 2 1 1 5 3 6 6 7 9 9 10 12 10 9 8 8 9 9 9 8
4 4 4 5 6 6 6 7 3 2 2 3 1 2 1 1 1 2 2 1 1 3 3 2 5 2 8 7 8 10 8 8 7 7 7 6 5 5
4 4 3 3 4 3 5 7 9 8 4 4 3 3 3 3 3 2 2 2 1 2 1 1 3 2 7 7 7 8 8 8 6 6 5 4 3 3
4 4 4 3 3 4 3 3 4 3 4 4 4 4 2 4 2 3 3 2 1 1 2 1 2 2 6 5 7 7 7 7 7 7 6 5 5 3
3 3 5 3 4 5 4 4 3 2 6 7 6 5 4 4 4 3 1 2 0 1 3 1 2 2 2 2 6 8 8 7 7 7 6 5 6 7
3 3 7 6 6 5 4 4 4 2 2 2 2 4 4 3 3 1 3 2 1 1 1 2 2 2 3 1 3 6 8 9 9 7 7 6 7 6
3 3 3 7 5 4 5 4 4 4 4 3 2 2 2 2 3 3 3 3 2 1 1 3 1 2 1 2 2 2 4 10 7 5 10 7 7 6
4 3 4 7 6 5 4 6 6 5 3 2 2 2 2 2 2 4 3 3 3 3 2 4 2 2 0 2 2 2 3 9 1 6 7 8 10 6
3 6 9 10 8 6 7 7 6 3 3 2 2 2 2 2 6 2 2 2 2 5 5 4 3 2 2 3 2 3 3 3 10 2 3 8 4 8
6 4 6 7 6 5 5 5 3 3 3 2 2 1 2 2 2 2 1 0 1 3 5 7 7 6 2 3 3 5 3 2 2 2 5 7 9 11
5 2 2 2 3 3 3 4 3 3 3 3 2 3 3 3 2 2 2 1 2 1 2 3 4 7 9 4 3 5 5 3 3 3 1 3 4 11
5 3 3 4 5 5 4 4 4 6 4 3 4 3 4 4 3 2 2 2 3 2 2 2 2 3 2 6 15 6 4 2 2 3 3 2 4 6
7 4 5 5 6 5 5 4 4 4 4 4 4 4 3 3 5 3 2 2 2 2 3 2 1 2 1 4 3 15 4 2 1 1 3 4 6 8
5 6 7 6 6 6 5 5 5 4 4 4 4 4 4 3 3 3 3 3 3 2 2 2 2 3 4 3 3 3 6 3 3 4 2 2 10 21
6 6 6 6 6 6 6 5 5 5 4 4 4 5 5 4 5 4 4 10 8 4 5 3 4 12 5 2 3 3 3 14 13 4 2 3 7 4
6 7 6 6 6 6 6 5 5 6 5 5 5 5 4 4 5 5 5 5 4 5 5 3 2 1 2 5 8 8 5 4 14 17 19 16 5 5
8 7 7 7 7 7 7 7 7 6 6 6 6 5 5 4 5 5 5 5 4 4 3 3 2 3 5 5 10 7 8 6 4 6 7 18 24 28
Wind_Direction
247 249 248 278 264 275 269 274 213 207 195 151 146 135 120 102 80 60 48 24 51 40 29 24 17 25 20 16 12 11 10 18 5 286 253 212 199 203
245 263 272 330 314 318 330 312 51 255 168 125 128 127 109 98 79 64 52 41 30 39 19 17 20 27 30 19 17 18 20 26 29 355 234 200 199 216
230 167 17 327 225 228 64 334 103 29 154 94 96 100 90 81 54 49 63 51 31 44 25 24 30 36 35 28 25 21 24 27 31 35 121 198 145 114
259 115 101 51 19 1 62 90 140 30 162 134 135 137 115 76 45 50 36 69 38 34 39 36 37 23 29 35 36 31 30 30 33 39 54 70 77 97
72 116 128 112 96 337 70 107 74 54 166 134 143 142 115 92 77 52 50 14 39 24 30 25 32 37 44 40 39 35 31 32 40 49 53 59 67 71
94 99 92 119 161 144 125 118 139 142 99 122 109 119 107 70 87 101 54 21 5 5 20 19 27 32 53 30 28 26 26 28 31 34 40 54 62 66
95 71 87 103 112 169 174 82 110 111 88 68 60 45 352 109 132 122 119 303 342 6 345 16 14 33 28 25 22 15 15 20 28 31 37 35 39 45
123 94 60 45 73 84 77 85 114 142 131 123 137 136 204 112 155 120 120 70 227 13 12 0 26 24 12 9 16 14 23 22 23 24 29 27 21 19
151 169 157 130 101 58 77 64 71 74 90 139 148 140 175 192 145 111 137 151 214 317 54 322 10 9 356 353 14 27 46 41 32 34 26 16 1 342
162 175 154 148 144 139 121 93 70 59 64 78 99 129 150 162 147 152 165 136 75 15 35 78 357 340 338 358 11 37 35 36 38 38 34 31 8 332
178 185 172 165 176 150 144 123 106 62 83 101 118 133 148 172 162 114 113 85 3 336 18 71 359 322 340 335 17 17 26 25 23 25 23 4 352 17
187 209 185 179 185 167 150 150 162 161 124 86 41 76 80 78 107 136 145 128 144 16 313 86 353 34 352 306 333 32 43 27 7 1 353 352 348 356
190 197 218 203 206 210 164 167 190 157 177 138 133 127 99 110 105 91 99 133 137 204 145 99 54 20 88 304 309 321 13 348 343 355 342 336 335 312
200 202 208 213 206 209 177 212 196 146 148 166 165 183 180 175 190 162 152 149 156 172 178 136 150 140 286 298 275 322 319 340 91 333 345 10 344 332
198 208 206 210 209 214 212 217 199 162 182 179 193 203 198 174 151 156 230 229 272 258 242 223 185 227 187 238 277 301 322 313 308 254 316 332 291 294
203 218 204 205 201 207 231 236 173 190 192 193 189 190 122 129 173 174 188 105 65 298 278 255 244 212 222 237 200 264 217 283 321 296 313 303 297 290
170 154 177 193 211 221 230 230 221 215 206 184 175 184 190 178 201 166 184 129 178 215 288 304 279 252 233 185 258 231 244 226 232 260 311 290 266 272
183 187 196 204 215 217 223 228 213 222 211 200 202 191 209 200 195 181 158 179 203 212 235 262 326 1 335 256 225 254 255 226 240 230 213 251 278 259
216 201 212 205 217 214 213 206 215 209 193 198 201 209 205 195 221 193 196 200 225 209 223 198 152 134 208 261 281 224 207 223 240 238 212 222 278 284
204 212 216 213 209 213 214 217 219 207 202 199 202 194 205 193 189 209 203 205 222 229 228 205 193 192 193 220 231 248 223 186 191 265 265 251 263 281
222 222 219 215 217 215 216 214 208 210 199 190 201 199 201 192 216 217 209 234 230 208 236 220 223 236 222 295 259 246 218 239 246 215 226 262 284 268
221 223 222 219 216 217 221 216 214 220 211 199 205 196 198 199 217 215 205 216 227 231 244 240 225 229 196 226 256 275 280 259 251 263 264 247 241 280
222 223 223 222 217 219 220 217 220 222 212 203 195 189 197 209 213 219 217 217 221 223 226 251 213 202 225 229 249 264 268 275 279 276 260 257 260 263